Showing default

SKYSAT C5, 41772

Orbit data source: Space-Track

SKYSAT C5, 41772 is a payload satellite owned by Terra Bella (US) in SSO that was launched on Fri, 16 Sep 2016 UTC via a VEGA launch vehicle from the French Guiana (FRGUI). Payloads include a variety of satellites, spacecraft, and rockets equipped with specific instruments for various scientific and technological missions. These include communications satellites like Starlink; space stations such as the ISS; scientific satellites like the Hubble; Earth observation satellites from companies like Planet Labs, Umbra, and HawkEye 360; GPS; miniature CubeSats for education and research; and military/defense satellites.

Loading next visibility...
SKYSAT C5 details
Identifier
41772, 2016-058C
Orbit
SSO
Last TLE update8 hours ago
Origin
Flag of USTerra Bella (US)
ManufacturerSS/Loral (MDA)
MissionOperational Commercial Imaging
Bus & MotorSKYSAT-GEN2, Unknown motor
Mass110 kg wet, 110 kg dry
Launch date (UTC)
2016-09-16 (8 years ago)
Launch vehicle
VEGA
Launch site
French Guiana (FRGUI)
Object type
Payload
Rocket body
Debris
Shape & HBRBox, 1.2 m
Radar Cross Section0.888 m², Medium (>0.1 m² and < 1m²)

Expand to show TLE details & history

TLE from 8 hours ago
0 SKYSAT C5
1 41772U 16058C   24356.93092639  .00021104  00000-0  55295-3 0  9999
2 41772  97.1299  47.0251 0007325 253.9706 106.0733 15.38684577460530
Epoch: 2024-12-21T22:20Z
Definitive object data (Epoch: 2024-12-21T22:20:32.04Z)
Latitude-0.00005°
Longitude-19.08341°
Altitude454.51 km
Speed7.639 km/s
True Right ascension03h 08m 06s
True Declination0° 00' 00"
Sunlit
Object was in full shadow at TLE epoch
Visualization TLE readout
Latitude0.83088°
Longitude-18.8704°
Altitude454.533 km
Speed7.639 km/s
Apparent Right ascension00h 13m 34s
Apparent Declination-47° 19' 41"
Sunlit
Object is in full shadow
Visualization observer readout
Local Sidereal Time05:13:41
Azimuth224.076° SW
Elevation-19.724°
Doppler factor1
Orbital elements
Apogee altitude451.927 km
Perigee altitude441.928 km
Semi-major axis6,825.064 km
Eccentricity0.0007325
Inclination97.1299°
RAAN47.0251°
Arg. of periapsis253.9706°
True anomaly106.15394°
Mean anomaly106.0733°
Eccentric anomaly106.11362°
Mean motion3.84931 °/min
BSTAR0.00055295
Orbital period93.52 mins
Loading maneuver chart data...
Loading historical data...
Loading historical data...
Loading historical data...
Loading historical data...
Loading historical data...
Loading historical data...
Loading historical data...

SKYSAT C5 Visibility forecast

Observer location: undefined°, undefined

Span
Click to sort rows by Start time (UTC) header in descending order
Start Az.
Max El. time (UTC)
Max El. Az.
Max El.
End time (UTC)
End Az.
6 mins2024-12-22 16:03:59.207Z26.093° NE2024-12-22 16:06:59.207Z87.611° E33.444°2024-12-22 16:09:59.207Z168.727° S
5 mins2024-12-23 04:07:59.207Z207.529° SW2024-12-23 04:09:59.207Z261.323° W28.167°2024-12-23 04:12:59.207Z327.333° NNW
|